Regional Weather Roundup
Issued by NWS Jackson, KY

Home | Current Version | Previous Version | Text Only | Print | Product List | Glossary On
Versions: 1 2 3 4 5 6 7 8 9 10 11 12 13 14 15 16 17 18 19 20 21 22 23 24 25 26 27 28 29 30 31 32 33 34 35 36 37 38 39 40 41 42 43 44 45 46 47 48 49 50
000
ASUS43 KJKL 302019
RWRJKL

EAST KENTUCKY HOURLY WEATHER ROUNDUP
NATIONAL WEATHER SERVICE JACKSON KY
400 PM EDT SAT AUG 30 2014

NOTE: "FAIR" INDICATES FEW OR NO CLOUDS BELOW 12,000 FEET WITH
NO SIGNIFICANT WEATHER AND/OR OBSTRUCTIONS TO VISIBILITY.

* THESE REPORTS ARE NOT UNDER NWS QUALITY CONTROL AND MAY NOT
  REPORT WEATHER SUCH AS PRECIPITATION AND FOG.

KYZ079-080-083-085-087-088-110-112-115-119-120-302100
...EASTERN KENTUCKY...

CITY           SKY/WX    TMP DP  RH WIND       PRES   REMARKS
JACKSON        MOSUNNY   88  68  51 VRB6      30.10F HX  91
LONDON         PTSUNNY   90  65  43 SW10      30.09F HX  92
SOMERSET*      CLOUDY    86  68  54 S6        30.09F
MONTICELLO*    CLOUDY    86  72  62 S8        30.09F HX  92
WILLIAMSBURG*  MOSUNNY   84  68  58 S6          N/A
MIDDLESBORO*   CLOUDY    86  68  55 SW3       30.11F
HARLAN APT*    MOCLDY    86  63  45 MISG      30.13F
HAZARD APT*    MOCLDY    88  66  48 S6        30.10F HX  90
BLACK MTN*       N/A     77  66  69 S7          N/A
PIKEVILLE APT* PTSUNNY   84  68  58 S5        30.11F
BIG SANDY*     CLEAR    N/A N/A N/A SW9       30.10F
MOREHEAD APT*  MOCLDY    88  66  48 S14       30.08F HX  90
ASHLAND*       MOSUNNY   90  64  43 W9        30.03F HX  91
$$

KYZ035-036-041-042-044-050-067-078-099-302100
...CENTRAL KENTUCKY...

CITY           SKY/WX    TMP DP  RH WIND       PRES   REMARKS
MT STERLING*   PTSUNNY   88  68  51 SW9       30.08F HX  91
FLEMING/MASON* MOSUNNY   88  68  51 SW12G17   30.06F HX  91
DANVILLE*      CLOUDY    84  68  58 SW10      30.08F
RICHMOND*      CLOUDY    88  64  45 SW9       30.07F
LEXINGTON      CLOUDY    88  66  48 SW12G18   30.05F HX  90
FRANKFORT      CLOUDY    85  69  58 SW12      30.03F
$$

KYZ091>093-OHZ055-061-077-WVZ005-015-034-035-042-302100
...SOUTHERN OHIO/WEST VIRGINIA...

CITY           SKY/WX    TMP DP  RH WIND       PRES   REMARKS
COVINGTON      PTSUNNY   85  66  53 SW8       30.03F
COLUMBUS       PTSUNNY   92  63  38 SW14G22   30.02F HX  93
DAYTON         CLOUDY    80  69  69 W9        30.04F
WILMINGTON     PTSUNNY   84  65  52 SW10      30.03F
HUNTINGTON     PTSUNNY   88  67  49 SW9       30.06F HX  91
CHARLESTON     MOSUNNY   89  64  43 S12       30.08F HX  90
PINEVILLE*     PTSUNNY   84  73  69 MISG      30.20S HX  91
BECKLEY        PTSUNNY   83  59  44 SW6       30.20F
BLUEFIELD      PTSUNNY   84  60  44 S7        30.23F
$$

VAZ002-007-008-TNZ017-027-036-066-071-302100
...SOUTHWEST VIRGINIA/EAST TENNESSEE...

CITY           SKY/WX    TMP DP  RH WIND       PRES   REMARKS
WISE*          MOSUNNY   81  59  47 S8        30.21F
JONESVILLE*      N/A     90  64  43 SW6       30.13F HX  91
ABINGDON*      PTSUNNY   89  59  36 CALM      30.16F
BRISTOL        PTSUNNY   88  63  43 N3        30.12F
KNOXVILLE      TSTM      74  69  85 NW6       30.09R
OAK RIDGE      PTSUNNY   89  68  49 CALM      30.09F HX  93
CROSSVILLE     PTSUNNY   82  66  58 VRB6      30.13F
NASHVILLE      CLOUDY    81  72  74 NW8       30.06F
$$

...KEY TO REMARKS...
VSB - VISIBILITY IN MILES
WCI - WIND CHILL INDEX
HX  - HEAT INDEX

$$


USA.gov is the U.S. government's official web portal to all federal, state and local government web resources and services.